Time,TemperatureF,DewpointF,PressureIn,WindDirection,WindDirectionDegrees,WindSpeedMPH,WindSpeedGustMPH,Humidity,HourlyPrecipIn,Conditions,Clouds,dailyrainin,SolarRadiationWatts/m^2,SoftwareType,DateUTC
2013-07-30 00:22:00,78.0,42.0,-100.00,North,2,9.0,12.0,28,0.00,,,0.00,0.000000,,2013-07-30 07:22:00,
2013-07-30 00:33:00,78.0,42.0,-100.00,North,2,9.0,12.0,28,0.00,,,0.00,0.000000,,2013-07-30 07:33:00,
2013-07-30 00:43:00,78.0,42.0,-100.00,North,2,9.0,12.0,28,0.00,,,0.00,0.000000,,2013-07-30 07:43:00,
2013-07-30 00:53:00,78.0,42.0,-100.00,North,2,9.0,12.0,28,0.00,,,0.00,0.000000,,2013-07-30 07:53:00,
2013-07-30 01:22:00,75.0,42.0,-100.00,North,7,10.0,14.0,31,0.00,,,-99.99,0.000000,,2013-07-30 08:22:00,
2013-07-30 01:33:00,75.0,42.0,-100.00,North,7,10.0,14.0,31,0.00,,,-99.99,0.000000,,2013-07-30 08:33:00,
2013-07-30 01:42:00,75.0,42.0,-100.00,North,7,10.0,14.0,31,0.00,,,-99.99,0.000000,,2013-07-30 08:42:00,
2013-07-30 01:52:00,75.0,42.0,-100.00,North,7,10.0,14.0,31,0.00,,,-99.99,0.000000,,2013-07-30 08:52:00,
2013-07-30 02:32:00,75.0,44.0,-100.00,North,8,10.0,17.0,33,0.00,,,0.00,0.000000,,2013-07-30 09:32:00,
2013-07-30 02:43:00,75.0,44.0,-100.00,North,8,10.0,17.0,33,0.00,,,0.00,0.000000,,2013-07-30 09:43:00,
2013-07-30 02:53:00,75.0,44.0,-100.00,North,8,10.0,17.0,33,0.00,,,0.00,0.000000,,2013-07-30 09:53:00,
2013-07-30 03:43:00,74.0,42.0,-100.00,West,268,2.0,14.0,32,0.00,,,0.00,0.000000,,2013-07-30 10:43:00,
2013-07-30 03:52:00,74.0,42.0,-100.00,West,268,2.0,14.0,32,0.00,,,0.00,0.000000,,2013-07-30 10:52:00,
2013-07-30 04:22:00,72.0,41.0,-100.00,North,354,5.0,9.0,32,0.00,,,0.00,0.000000,,2013-07-30 11:22:00,
2013-07-30 04:33:00,72.0,41.0,-100.00,North,354,5.0,9.0,32,0.00,,,0.00,0.000000,,2013-07-30 11:33:00,
2013-07-30 04:43:00,72.0,41.0,-100.00,North,354,5.0,9.0,32,0.00,,,0.00,0.000000,,2013-07-30 11:43:00,
2013-07-30 04:53:00,72.0,41.0,-100.00,North,354,5.0,9.0,32,0.00,,,0.00,0.000000,,2013-07-30 11:53:00,
2013-07-30 05:22:00,72.0,42.0,-100.00,North,11,8.0,11.0,34,0.00,,,0.00,0.000000,,2013-07-30 12:22:00,
2013-07-30 05:33:00,72.0,42.0,-100.00,North,11,8.0,11.0,34,0.00,,,0.00,0.000000,,2013-07-30 12:33:00,
2013-07-30 05:42:00,72.0,42.0,-100.00,North,11,8.0,11.0,34,0.00,,,0.00,0.000000,,2013-07-30 12:42:00,
2013-07-30 05:53:00,72.0,42.0,-100.00,North,11,8.0,11.0,34,0.00,,,0.00,0.000000,,2013-07-30 12:53:00,
2013-07-30 06:22:00,69.0,42.0,-100.00,North,4,8.0,14.0,37,0.00,,,0.00,0.000000,,2013-07-30 13:22:00,
2013-07-30 06:32:00,69.0,42.0,-100.00,North,4,8.0,14.0,37,0.00,,,0.00,0.000000,,2013-07-30 13:32:00,
2013-07-30 06:42:00,69.0,42.0,-100.00,North,4,8.0,14.0,37,0.00,,,0.00,0.000000,,2013-07-30 13:42:00,
2013-07-30 06:52:00,69.0,42.0,-100.00,North,4,8.0,14.0,37,0.00,,,0.00,0.000000,,2013-07-30 13:52:00,
2013-07-30 07:22:00,70.0,43.0,-100.00,North,6,8.0,15.0,37,0.00,,,0.00,11.000000,,2013-07-30 14:22:00,
2013-07-30 07:32:00,70.0,43.0,-100.00,North,6,8.0,15.0,37,0.00,,,0.00,11.000000,,2013-07-30 14:32:00,
2013-07-30 07:43:00,70.0,43.0,-100.00,North,6,8.0,15.0,37,0.00,,,0.00,11.000000,,2013-07-30 14:43:00,
2013-07-30 07:53:00,70.0,43.0,-100.00,North,6,8.0,15.0,37,0.00,,,0.00,11.000000,,2013-07-30 14:53:00,
2013-07-30 08:23:00,73.0,42.0,-100.00,NNE,20,7.0,14.0,33,0.00,,,0.00,117.000000,,2013-07-30 15:23:00,
2013-07-30 08:33:00,73.0,42.0,-100.00,NNE,20,7.0,14.0,33,0.00,,,0.00,117.000000,,2013-07-30 15:33:00,
2013-07-30 08:43:00,73.0,42.0,-100.00,NNE,20,7.0,14.0,33,0.00,,,0.00,117.000000,,2013-07-30 15:43:00,
2013-07-30 08:52:00,73.0,42.0,-100.00,NNE,20,7.0,14.0,33,0.00,,,0.00,117.000000,,2013-07-30 15:52:00,
2013-07-30 09:43:00,81.0,42.0,-100.00,NE,50,4.0,14.0,25,0.00,,,0.00,452.000000,,2013-07-30 16:43:00,
2013-07-30 09:52:00,81.0,42.0,-100.00,NE,50,4.0,14.0,25,0.00,,,0.00,452.000000,,2013-07-30 16:52:00,
2013-07-30 10:22:00,85.0,39.0,-100.00,SSW,197,8.0,13.0,20,0.00,,,0.00,668.000000,,2013-07-30 17:22:00,
2013-07-30 10:32:00,85.0,39.0,-100.00,SSW,197,8.0,13.0,20,0.00,,,0.00,668.000000,,2013-07-30 17:32:00,
2013-07-30 10:43:00,85.0,39.0,-100.00,SSW,197,8.0,13.0,20,0.00,,,0.00,668.000000,,2013-07-30 17:43:00,
2013-07-30 10:53:00,85.0,39.0,-100.00,SSW,197,8.0,13.0,20,0.00,,,0.00,668.000000,,2013-07-30 17:53:00,
2013-07-30 11:23:00,87.0,41.0,-100.00,South,171,8.0,14.0,20,0.00,,,0.00,848.000000,,2013-07-30 18:23:00,
2013-07-30 11:32:00,87.0,41.0,-100.00,South,171,8.0,14.0,20,0.00,,,0.00,848.000000,,2013-07-30 18:32:00,
2013-07-30 11:42:00,87.0,41.0,-100.00,South,171,8.0,14.0,20,0.00,,,0.00,848.000000,,2013-07-30 18:42:00,
2013-07-30 11:52:00,87.0,41.0,-100.00,South,171,8.0,14.0,20,0.00,,,0.00,848.000000,,2013-07-30 18:52:00,
2013-07-30 12:22:00,91.0,43.0,-100.00,SSE,163,11.0,19.0,19,0.00,,,0.00,982.000000,,2013-07-30 19:22:00,
2013-07-30 12:33:00,91.0,43.0,-100.00,SSE,163,11.0,19.0,19,0.00,,,0.00,982.000000,,2013-07-30 19:33:00,
2013-07-30 12:43:00,91.0,43.0,-100.00,SSE,163,11.0,19.0,19,0.00,,,0.00,982.000000,,2013-07-30 19:43:00,
2013-07-30 12:52:00,91.0,43.0,-100.00,SSE,163,11.0,19.0,19,0.00,,,0.00,982.000000,,2013-07-30 19:52:00,
2013-07-30 13:22:00,96.0,43.0,-100.00,WSW,242,5.0,17.0,16,0.00,,,0.00,1062.000000,,2013-07-30 20:22:00,
2013-07-30 13:32:00,96.0,43.0,-100.00,WSW,242,5.0,17.0,16,0.00,,,0.00,1062.000000,,2013-07-30 20:32:00,
2013-07-30 13:43:00,96.0,43.0,-100.00,WSW,242,5.0,17.0,16,0.00,,,0.00,1062.000000,,2013-07-30 20:43:00,
2013-07-30 13:52:00,96.0,43.0,-100.00,WSW,242,5.0,17.0,16,0.00,,,0.00,1062.000000,,2013-07-30 20:52:00,
2013-07-30 14:32:00,96.0,41.0,-100.00,SSW,208,14.0,22.0,15,0.00,,,0.00,1111.000000,,2013-07-30 21:32:00,
2013-07-30 14:42:00,96.0,41.0,-100.00,SSW,208,14.0,22.0,15,0.00,,,0.00,1111.000000,,2013-07-30 21:42:00,
2013-07-30 14:52:00,96.0,41.0,-100.00,SSW,208,14.0,22.0,15,0.00,,,0.00,1111.000000,,2013-07-30 21:52:00,
2013-07-30 15:32:00,95.0,42.0,-100.00,South,186,17.0,25.0,16,0.00,,,0.00,1043.000000,,2013-07-30 22:32:00,
2013-07-30 15:43:00,95.0,42.0,-100.00,South,186,17.0,25.0,16,0.00,,,0.00,1043.000000,,2013-07-30 22:43:00,
2013-07-30 15:52:00,95.0,42.0,-100.00,South,186,17.0,25.0,16,0.00,,,0.00,1043.000000,,2013-07-30 22:52:00,
2013-07-30 16:22:00,96.0,44.0,-100.00,SW,214,13.0,26.0,17,0.00,,,0.00,902.000000,,2013-07-30 23:22:00,
2013-07-30 16:32:00,96.0,44.0,-100.00,SW,214,13.0,26.0,17,0.00,,,0.00,902.000000,,2013-07-30 23:32:00,
2013-07-30 16:42:00,96.0,44.0,-100.00,SW,214,13.0,26.0,17,0.00,,,0.00,902.000000,,2013-07-30 23:42:00,
2013-07-30 16:53:00,96.0,44.0,-100.00,SW,214,13.0,26.0,17,0.00,,,0.00,902.000000,,2013-07-30 23:53:00,
2013-07-30 17:22:00,97.0,43.0,-100.00,WSW,248,7.0,25.0,16,0.00,,,0.00,607.000000,,2013-07-31 00:22:00,
2013-07-30 17:32:00,97.0,43.0,-100.00,WSW,248,7.0,25.0,16,0.00,,,0.00,607.000000,,2013-07-31 00:32:00,
2013-07-30 17:43:00,97.0,43.0,-100.00,WSW,248,7.0,25.0,16,0.00,,,0.00,607.000000,,2013-07-31 00:43:00,
2013-07-30 17:53:00,97.0,43.0,-100.00,WSW,248,7.0,25.0,16,0.00,,,0.00,607.000000,,2013-07-31 00:53:00,
2013-07-30 18:22:00,95.0,42.0,-100.00,West,261,7.0,19.0,16,0.00,,,0.00,490.000000,,2013-07-31 01:22:00,
2013-07-30 18:32:00,95.0,42.0,-100.00,West,261,7.0,19.0,16,0.00,,,0.00,490.000000,,2013-07-31 01:32:00,
2013-07-30 18:42:00,95.0,42.0,-100.00,West,261,7.0,19.0,16,0.00,,,0.00,490.000000,,2013-07-31 01:42:00,
2013-07-30 18:52:00,95.0,42.0,-100.00,West,261,7.0,19.0,16,0.00,,,0.00,490.000000,,2013-07-31 01:52:00,
2013-07-30 19:22:00,89.0,43.0,-100.00,NW,318,17.0,27.0,20,0.00,,,0.00,268.000000,,2013-07-31 02:22:00,
2013-07-30 19:32:00,89.0,43.0,-100.00,NW,318,17.0,27.0,20,0.00,,,0.00,268.000000,,2013-07-31 02:32:00,
2013-07-30 19:42:00,89.0,43.0,-100.00,NW,318,17.0,27.0,20,0.00,,,0.00,268.000000,,2013-07-31 02:42:00,
2013-07-30 19:52:00,89.0,43.0,-100.00,NW,318,17.0,27.0,20,0.00,,,0.00,268.000000,,2013-07-31 02:52:00,
2013-07-30 20:22:00,85.0,42.0,-100.00,WNW,297,14.0,27.0,22,0.00,,,0.00,52.000000,,2013-07-31 03:22:00,
2013-07-30 20:32:00,85.0,42.0,-100.00,WNW,297,14.0,27.0,22,0.00,,,0.00,52.000000,,2013-07-31 03:32:00,
2013-07-30 20:42:00,85.0,42.0,-100.00,WNW,297,14.0,27.0,22,0.00,,,0.00,52.000000,,2013-07-31 03:42:00,
2013-07-30 20:52:00,85.0,42.0,-100.00,WNW,297,14.0,27.0,22,0.00,,,0.00,52.000000,,2013-07-31 03:52:00,
2013-07-30 21:32:00,83.0,42.0,-100.00,WSW,253,4.0,23.0,24,0.00,,,0.00,0.000000,,2013-07-31 04:32:00,
2013-07-30 21:42:00,83.0,42.0,-100.00,WSW,253,4.0,23.0,24,0.00,,,0.00,0.000000,,2013-07-31 04:42:00,
2013-07-30 21:52:00,83.0,42.0,-100.00,WSW,253,4.0,23.0,24,0.00,,,0.00,0.000000,,2013-07-31 04:52:00,
2013-07-30 22:22:00,81.0,45.0,-100.00,South,171,15.0,21.0,28,0.00,,,0.00,0.000000,,2013-07-31 05:22:00,
2013-07-30 22:32:00,81.0,45.0,-100.00,South,171,15.0,21.0,28,0.00,,,0.00,0.000000,,2013-07-31 05:32:00,
2013-07-30 22:42:00,81.0,45.0,-100.00,South,171,15.0,21.0,28,0.00,,,0.00,0.000000,,2013-07-31 05:42:00,
2013-07-30 22:52:00,81.0,45.0,-100.00,South,171,15.0,21.0,28,0.00,,,0.00,0.000000,,2013-07-31 05:52:00,
2013-07-30 23:22:00,79.0,45.0,-100.00,SSE,168,14.0,21.0,30,0.00,,,0.00,0.000000,,2013-07-31 06:22:00,
2013-07-30 23:32:00,79.0,45.0,-100.00,SSE,168,14.0,21.0,30,0.00,,,0.00,0.000000,,2013-07-31 06:32:00,
2013-07-30 23:42:00,79.0,45.0,-100.00,SSE,168,14.0,21.0,30,0.00,,,0.00,0.000000,,2013-07-31 06:42:00,
2013-07-30 23:52:00,79.0,45.0,-100.00,SSE,168,14.0,21.0,30,0.00,,,0.00,0.000000,,2013-07-31 06:52:00,